User: anonymous   Login
Location: Bagnara
(41.0500°N, 14.7833°E)
Time: 11:27:40
(UTC+00:00)
Language:

NPP - Orbit

View from above orbital plane
View from above orbital plane
View from above satellite
View from above satellite

Ground track
Ground track

The orbit data is extracted from the following two-line orbital elements,

1 37849U 11061A   21260.00244752  .00000007  00000-0  24272-4 0  9993
2 37849  98.7409 197.4700 0001462  72.3498 350.0200 14.19542868512392
Epoch (UTC): 17 September 2021 00:03:31
Eccentricity: 0.0001462
inclination: 98.7409°
perigee height: 826 km
apogee height: 828 km
right ascension of ascending node: 197.4700°
argument of perigee: 72.3498°
revolutions per day: 14.19542868
mean anomaly at epoch: 350.0200°
orbit number at epoch: 51239

The dashed part of the orbit path shows where the satellite is in the earth's shadow,  

DLR